Home   Weather   Cheongju   Past weeks

Flag for South Korea Past Weather in Cheongju, South Korea — Yesterday and Last 2 Weeks

Now
23 °F

Clear.


Feels Like: 23 °F
Forecast: 17 / 48 °F
Wind: 1 mph from Northeast

Location: Chongju Ab

Current Time: Dec 6, 2016 at 9:28:01 pm

Latest Report: Dec 6, 2016 at 9:00 pm


Visibility: 10 mi

Pressure: 30.27 "Hg

Humidity: 74%

Dew Point: 16 °F

Location of CheongjuLocation

Past Weather in Cheongju — Graph

°F

Cheongju Temperature Yesterday

Maximum temperature yesterday: 55 °F (at 2:00 pm)
Minimum temperature yesterday: 36 °F (at 3:00 am)
Average temperature yesterday: 45 °F

High & Low Weather Summary for the Past Weeks

 TemperatureHumidityPressure
High55 °F (Dec 5, 2:00 pm)100% (Nov 22, 12:50 am)30.54 "Hg (Nov 22, 12:50 am)
Low18 °F (Nov 24, 7:00 am)25% (Dec 1, 2:00 pm)29.98 "Hg (Dec 5, 2:00 pm)
Average35 °F70%30.28 "Hg
* Reported Nov 21 8:00 pm — Dec 6 8:00 pm, Cheongju, Weather by CustomWeather, © 2016

Note: Actual official high and low records may vary slightly from our data, if they occured in-between our weather recording intervals... More about our weather records

Advertising

Cheongju Weather History for the Previous 24 Hours

Scroll right to see more
 ConditionsComfort  
Time TempWeatherWind HumidityBarometerVisibility
8:00 pm
Tue, Dec 6
27 °FClear.1 mph46%30.27 "Hg10 mi
7:00 pm28 °FClear.3 mph43%30.27 "Hg10 mi
6:00 pm36 °FClear.5 mph30%30.27 "Hg10 mi
5:00 pm36 °FSunny.6 mph35%30.27 "Hg10 mi
4:00 pm39 °FSunny.7 mph30%30.27 "Hg10 mi
3:00 pm39 °FSunny.7 mph28%30.27 "Hg10 mi
2:00 pm39 °FSunny.7 mph28%30.30 "Hg10 mi
1:00 pm37 °FSunny.8 mph33%30.33 "Hg10 mi
12:00 pm36 °FSunny.8 mph35%30.36 "Hg10 mi
11:00 am34 °FSunny.7 mph38%30.39 "Hg10 mi
10:00 am32 °FSunny.5 mph44%30.36 "Hg10 mi
9:00 am30 °FSunny.7 mph51%30.36 "Hg10 mi
8:00 am28 °FSunny.8 mph55%30.33 "Hg10 mi
7:00 am28 °FClear.8 mph59%30.33 "Hg10 mi
6:00 am30 °FClear.6 mph55%30.30 "Hg10 mi
5:00 am30 °FClear.7 mph59%30.30 "Hg10 mi
4:00 am32 °FPassing clouds.7 mph60%30.27 "HgN/A
3:00 am34 °FPassing clouds.8 mph60%30.27 "HgN/A
2:00 am36 °FPassing clouds.9 mph65%30.27 "HgN/A
1:00 am37 °FPassing clouds.12 mph60%30.24 "HgN/A
12:00 am39 °FPassing clouds.9 mph52%30.21 "HgN/A
11:00 pm
Mon, Dec 5
41 °FPartly cloudy.9 mph61%30.18 "HgN/A
10:00 pm43 °FPartly cloudy.15 mph61%30.15 "HgN/A
9:54 pm43 °FPartly cloudy.12 mph61%30.15 "HgN/A
9:00 pm45 °FPartly cloudy.10 mph66%30.12 "Hg6 mi
Weather by CustomWeather, © 2016

See weather overviewHow to use our weather pages